Stations météo

réclame
Mon MeteoGroup
Leutkirch-Herlazhofen, Allemagne (10945): Température de l'air & dewpoint: 14.11.2017 00:00:00 - 20.11.2017 00:00:00 (CET)Leutkirch-Herlazhofen, Allemagne (10945): Température de l'air 5cm & Température de l'air -5cm: 14.11.2017 00:00:00 - 20.11.2017 00:00:00 (CET)Leutkirch-Herlazhofen, Allemagne (10945): Température de l'air -20cm & Température de l'air -100cm: 14.11.2017 00:00:00 - 20.11.2017 00:00:00 (CET)Leutkirch-Herlazhofen, Allemagne (10945): Vitesse du vent & gusts: 14.11.2017 00:00:00 - 20.11.2017 00:00:00 (CET)Leutkirch-Herlazhofen, Allemagne (10945): Direction du vent: 14.11.2017 00:00:00 - 20.11.2017 00:00:00 (CET)Leutkirch-Herlazhofen, Allemagne (10945): reduced air pressure: 14.11.2017 00:00:00 - 20.11.2017 00:00:00 (CET)Leutkirch-Herlazhofen, Allemagne (10945): visibility: 14.11.2017 00:00:00 - 20.11.2017 00:00:00 (CET)Leutkirch-Herlazhofen, Allemagne (10945): Ensoleillement: 14.11.2017 00:00:00 - 20.11.2017 00:00:00 (CET)Leutkirch-Herlazhofen, Allemagne (10945): Quantités de précipitations: 14.11.2017 00:00:00 - 20.11.2017 00:00:00 (CET)
Date & Time tt [°C] td [°C] tt 5cm [°C] tt -5cm [°C] tt -20cm [°C] tt -100cm [°C] ff [km/h] ff [knt] fx [km/h] fx [knt] dd ppp [hPa] vv [km] sd [min] rr [mm]
20.11.2017 00:00:00 0,6 -0,5 -0,1 1,4 3,1 8,1 14 8 26 14 SW 1026,3 11 0 0,0
19.11.2017 23:00:00 0,7 -0,4 -0,1 1,4 3,1 8,1 20 11 27 15 SW 1025,9 10 0 0,0
19.11.2017 22:00:00 0,7 -0,5 -0,1 1,4 3,1 8,1 19 11 25 13 SW 1025,8 14 0 0,0
19.11.2017 21:00:00 0,6 -0,8 -0,1 1,4 3,2 8,1 16 9 23 12 SW 1025,3 16 0 0,0
19.11.2017 20:00:00 0,9 -1,1 -0,1 1,4 3,2 8,1 12 6 27 15 WSW 1024,4 30 0 0,0
19.11.2017 19:00:00 1,1 -1,5 -0,1 1,4 3,2 8,2 15 8 21 11 SW 1023,9 43 0 0,0
19.11.2017 18:00:00 1,0 -1,2 -0,1 1,4 3,2 8,2 16 9 21 12 SW 1023,7 37 0 0,0
19.11.2017 17:00:00 0,9 -0,9 -0,1 1,4 3,3 8,2 13 7 22 12 SSW 1023,4 28 0 0,0
19.11.2017 16:00:00 1,3 -0,5 -0,1 1,4 3,3 8,2 15 8 20 11 SW 1022,6 23 1 0,0
19.11.2017 15:00:00 1,3 -0,5 -0,1 1,4 3,3 8,2 15 8 22 12 SSW 1022,0 28 0 0,0
19.11.2017 14:00:00 1,6 -1,0 -0,1 1,5 3,4 8,2 13 7 27 14 W 1021,4 18 11 0,0
19.11.2017 13:00:00 1,4 -0,9 -0,1 1,5 3,4 8,2 19 10 36 20 W 1021,3 24 9 0,0
19.11.2017 12:00:00 1,1 0,1 -0,1 1,5 3,4 8,2 25 13 37 20 WSW 1021,1 10 0 0,1
19.11.2017 11:00:00 0,7 -0,1 -0,1 1,5 3,5 8,2 23 12 39 21 WSW 1020,7 9 0 0,0
19.11.2017 10:00:00 0,6 0,0 -0,1 1,6 3,5 8,2 25 13 37 20 SW 1020,0 12 0 0,1
19.11.2017 09:00:00 0,0 -0,2 -0,1 1,6 3,6 8,2 22 12 35 19 SW 1020,0 7 0 0,4
19.11.2017 08:00:00 -0,1 -0,1 -0,1 1,6 3,6 8,2 23 12 35 19 SW 1019,7 6 0 0,2
19.11.2017 07:00:00 -0,1 -0,2 -0,1 1,7 3,6 8,2 19 10 33 18 SSW 1019,0 1,2 0 0,6
19.11.2017 06:00:00 -0,1 -0,2 -0,1 1,7 3,7 8,2 24 13 36 19 SW 1019,4 1,1 0 0,9
19.11.2017 05:00:00 -0,1 -0,2 -0,1 1,8 3,8 8,2 19 10 32 17 SW 1020,2 0,9 0 0,6
19.11.2017 04:00:00 -0,1 -0,3 -0,1 1,8 3,8 8,2 17 9 34 18 SW 1020,4 1,2 0 0,4
19.11.2017 03:00:00 -0,1 -0,4 -0,1 1,9 3,9 8,2 20 11 31 17 SW 1021,0 1,7 0 1,4
19.11.2017 02:00:00 0,0 -0,3 -0,1 2,0 3,9 8,2 19 11 40 21 SW 1021,6 0,5 0 1,7
19.11.2017 01:00:00 0,2 -0,8 -0,1 2,2 4,0 8,2 26 14 41 22 SW 1022,2 1,2 0 0,1
19.11.2017 00:00:00 1,1 -1,3 0,5 2,3 4,0 8,3 14 8 24 13 SSW 1022,7 16 0 0,0
18.11.2017 23:00:00 1,2 -1,5 0,7 2,4 4,1 8,3 14 8 34 18 SW 1023,4 18 0 0,0
18.11.2017 22:00:00 1,4 -1,5 0,9 2,5 4,1 8,3 16 8 26 14 WSW 1023,8 21 0 0,0
18.11.2017 21:00:00 1,6 -1,2 1,0 2,7 4,1 8,3 14 7 29 16 WSW 1024,1 15 0 0,0
18.11.2017 20:00:00 1,9 -1,0 1,3 2,9 4,2 8,3 16 9 29 16 WSW 1023,8 14 0 0,0
18.11.2017 19:00:00 2,0 -0,3 1,4 3,0 4,2 8,3 18 10 32 18 WSW 1023,4 11 0 0,0
18.11.2017 18:00:00 2,3 0,6 1,8 3,2 4,2 8,3 16 9 28 15 WSW 1023,3 10 0 0,0
18.11.2017 17:00:00 2,3 0,6 1,8 3,4 4,2 8,3 14 8 29 15 SW 1023,4 10 0 0,0
18.11.2017 16:00:00 2,6 0,9 2,2 3,6 4,1 8,3 21 11 31 17 SW 1023,1 11 0 0,0
18.11.2017 15:00:00 2,7 1,5 2,6 3,8 4,1 8,3 18 10 27 15 SW 1023,0 9 0 0,0
18.11.2017 14:00:00 2,3 1,5 2,5 3,7 4,0 8,3 16 8 24 13 SW 1023,5 4,3 0 0,0
18.11.2017 13:00:00 2,2 1,6 2,4 3,7 4,0 8,3 11 6 18 10 SW 1024,4 3,0 0 0,0
18.11.2017 12:00:00 2,2 1,8 2,7 3,6 3,9 8,3 12 6 16 9 SW 1024,7 2,9 0 0,0
18.11.2017 11:00:00 2,0 1,4 2,3 3,3 3,9 8,3 10 5 14 8 SSW 1025,2 3,6 0 0,0
18.11.2017 10:00:00 1,8 1,6 2,2 3,0 3,9 8,3 9 5 16 9 SSW 1025,1 2,4 0 0,1
18.11.2017 09:00:00 1,4 0,9 1,7 2,7 3,9 8,4 8 4 11 6 SSW 1025,3 3,0 0 0,0
18.11.2017 08:00:00 1,3 0,7 1,3 2,6 3,9 8,4 8 4 13 7 SW 1025,3 3,0 0 0,0
18.11.2017 07:00:00 1,1 0,7 1,1 2,6 3,9 8,4 10 6 13 7 SSW 1025,3 1,9 0 0,0
18.11.2017 06:00:00 1,1 0,9 1,1 2,6 3,9 8,4 4 2 8 5 WSW 1025,6 1,3 0 0,0
18.11.2017 05:00:00 0,8 0,6 0,9 2,6 3,9 8,4 6 3 11 6 S 1025,5 1,1 0 0,0
18.11.2017 04:00:00 0,7 0,5 0,8 2,7 4,0 8,4 6 4 11 6 SSW 1025,4 1,3 0 0,0
18.11.2017 03:00:00 0,8 0,3 0,8 2,7 4,0 8,4 8 4 10 5 SSW 1025,5 2,0 0 0,0
18.11.2017 02:00:00 1,2 0,1 1,2 2,8 4,0 8,4 6 4 13 7 WSW 1025,6 7 0 0,0
18.11.2017 01:00:00 1,2 0,8 1,3 2,9 4,0 8,4 6 3 8 4 SSW 1025,9 2,5 0 0,0
18.11.2017 00:00:00 1,2 0,9 1,2 2,9 4,0 8,4 6 3 8 4 S 1026,4 1,4 0 0,0
17.11.2017 23:00:00 1,7 1,0 1,7 3,0 4,0 8,4 5 3 9 5 ESE 1026,3 2,6 0 0,0
17.11.2017 22:00:00 1,7 0,9 1,7 3,0 4,0 8,4 8 4 11 6 ENE 1026,4 4,0 0 0,0
17.11.2017 21:00:00 1,8 1,0 1,8 3,0 4,0 8,5 8 4 13 7 NE 1026,3 3,4 0 0,0
17.11.2017 20:00:00 1,9 1,1 1,9 3,1 4,0 8,5 6 3 12 7 NNE 1026,3 2,8 0 0,0
17.11.2017 19:00:00 1,8 0,8 1,6 3,2 4,0 8,5 4 2 10 5 N 1026,5 4,5 0 0,0
17.11.2017 18:00:00 1,8 0,9 1,5 3,4 4,0 8,5 8 5 13 7 N 1026,2 3,9 0 0,0
17.11.2017 17:00:00 2,1 0,5 1,6 3,8 3,9 8,5 5 3 10 5 NE 1026,2 6 0 0,0
17.11.2017 16:00:00 2,5 1,1 2,6 4,1 3,8 8,5 6 3 12 6 ENE 1026,3 4,9 0 0,0
17.11.2017 15:00:00 2,3 0,6 3,0 4,2 3,6 8,5 8 4 13 7 ENE 1026,6 5 0 0,0
17.11.2017 14:00:00 2,2 0,6 3,2 4,0 3,5 8,5 8 5 13 7 NE 1026,9 5 0 0,0
17.11.2017 13:00:00 1,7 0,2 2,7 3,8 3,4 8,5 6 3 9 5 ENE 1026,9 4,6 0 0,0
17.11.2017 12:00:00 1,3 -0,4 2,3 3,3 3,3 8,5 6 3 8 5 NNE 1027,5 4,3 0 0,0
17.11.2017 11:00:00 0,9 -1,2 1,9 2,3 3,2 8,5 4 2 7 4 NNE 1027,9 6 0 0,1
17.11.2017 10:00:00 -0,1 -1,8 0,5 1,8 3,2 8,5 7 4 12 7 S 1028,1 6 0 0,0
17.11.2017 09:00:00 -0,7 -1,8 -0,4 1,4 3,2 8,5 1 1 10 5 S 1028,6 3,5 0 0,0
17.11.2017 08:00:00 -1,2 -1,8 -1,0 1,3 3,3 8,6 6 3 9 5 S 1028,1 2,7 0 0,0
17.11.2017 07:00:00 -1,4 -1,9 -1,2 1,3 3,3 8,6 5 3 13 7 SW 1028,3 1,9 0 0,0
17.11.2017 06:00:00 -1,4 -1,9 -1,2 1,4 3,3 8,6 11 6 18 10 S 1027,8 1,5 0 0,0
17.11.2017 05:00:00 -1,0 -1,9 -0,9 1,4 3,3 8,6 8 4 13 7 SW 1028,2 3,2 0 0,0
17.11.2017 04:00:00 -0,8 -1,8 -0,8 1,5 3,4 8,6 9 5 14 7 SSW 1027,8 3,6 0 0,0
17.11.2017 03:00:00 -0,4 -1,6 -0,5 1,5 3,4 8,6 9 5 15 8 S 1027,6 4,1 0 0,0
17.11.2017 02:00:00 -0,3 -1,7 -0,3 1,6 3,4 8,6 6 3 16 9 WSW 1027,8 4,5 0 0,0
17.11.2017 01:00:00 -0,3 -2,0 -0,3 1,6 3,4 8,6 9 5 15 8 SW 1027,8 5 0 0,0
17.11.2017 00:00:00 -0,3 -2,0 -0,3 1,6 3,5 8,6 8 4 12 7 SSW 1027,5 5 0 0,0
16.11.2017 23:00:00 -0,4 -2,2 -0,4 1,6 3,5 8,6 5 3 9 5 W 1027,5 5 0 0,0
16.11.2017 22:00:00 -0,5 -2,4 -0,5 1,7 3,5 8,6 5 3 11 6 WSW 1027,3 6 0 0,0
16.11.2017 21:00:00 -0,4 -2,3 -0,5 1,8 3,6 8,7 6 4 10 5 WSW 1027,1 6 0 0,0
16.11.2017 20:00:00 -0,3 -2,1 -0,4 1,8 3,6 8,7 6 3 12 6 W 1026,9 6 0 0,0
16.11.2017 19:00:00 -0,2 -2,3 -0,3 1,9 3,6 8,7 8 4 11 6 W 1026,7 7 0 0,0
16.11.2017 18:00:00 -0,2 -2,4 -0,3 2,1 3,6 8,7 6 3 13 7 W 1026,3 8 0 0,0
16.11.2017 17:00:00 -0,1 -2,5 -0,2 2,3 3,6 8,7 7 4 15 8 WSW 1025,9 8 0 0,0
16.11.2017 16:00:00 0,1 -2,4 0,2 2,6 3,5 8,7 9 5 17 9 W 1025,7 8 0 0,0
16.11.2017 15:00:00 0,2 -2,2 0,5 2,8 3,5 8,7 13 7 21 11 WSW 1025,5 9 0 0,0
16.11.2017 14:00:00 0,4 -2,0 1,0 2,9 3,4 8,7 9 5 14 8 W 1025,1 8 0 0,0
16.11.2017 13:00:00 0,4 -2,1 1,3 2,6 3,4 8,7 3 2 8 4 WNW 1025,4 8 0 0,0
16.11.2017 12:00:00 0,0 -2,8 0,8 2,2 3,3 8,7 0 0 6 4 N 1025,9 8 0 0,0
16.11.2017 11:00:00 -0,5 -3,1 0,1 1,8 3,3 8,7 3 2 5 3 ESE 1026,2 9 0 0,0
16.11.2017 10:00:00 -0,9 -3,3 -0,3 1,5 3,3 8,7 4 2 8 4 ENE 1026,2 9 0 0,0
16.11.2017 09:00:00 -1,1 -3,1 -0,8 1,4 3,4 8,8 4 2 8 4 NE 1026,2 8 0 0,0
16.11.2017 08:00:00 -1,2 -3,3 -1,1 1,4 3,4 8,8 5 3 8 5 ENE 1026,0 8 0 0,0
16.11.2017 07:00:00 -1,2 -3,2 -1,2 1,4 3,4 8,8 1 1 9 5 WNW 1025,5 9 0 0,0
16.11.2017 06:00:00 -1,2 -3,2 -1,2 1,4 3,4 8,8 5 3 9 5 E 1025,3 8 0 0,0
16.11.2017 05:00:00 -1,3 -2,9 -1,2 1,4 3,4 8,8 7 4 12 7 ENE 1025,7 7 0 0,0
16.11.2017 04:00:00 -1,2 -2,9 -1,1 1,4 3,5 8,8 10 5 18 10 SE 1025,4 8 0 0,0
16.11.2017 03:00:00 -1,0 -2,7 -1,0 1,4 3,5 8,8 7 4 20 11 ENE 1026,0 7 0 0,0
16.11.2017 02:00:00 -1,0 -2,7 -1,0 1,5 3,5 8,8 10 6 19 10 ENE 1026,0 7 0 0,0
16.11.2017 01:00:00 -0,7 -2,7 -0,7 1,5 3,6 8,8 9 5 23 13 ENE 1025,9 8 0 0,0
16.11.2017 00:00:00 -0,6 -2,5 -0,6 1,5 3,6 8,8 8 5 19 11 ENE 1026,2 8 0 0,0
15.11.2017 23:00:00 -0,5 -2,3 -0,6 1,6 3,6 8,8 9 5 19 10 ENE 1026,7 8 0 0,0
15.11.2017 22:00:00 -0,5 -2,1 -0,6 1,7 3,7 8,8 9 5 22 12 E 1026,9 8 0 0,0
15.11.2017 21:00:00 -0,4 -2,1 -0,5 1,9 3,7 8,8 10 5 20 11 ENE 1027,3 8 0 0,0
15.11.2017 20:00:00 0,1 -1,5 0,0 2,0 3,7 8,9 9 5 22 12 ENE 1026,9 9 0 0,0
15.11.2017 19:00:00 0,3 -1,1 0,2 2,1 3,7 8,9 11 6 25 13 NE 1026,7 7 0 0,0
15.11.2017 18:00:00 0,4 -0,8 0,3 2,1 3,7 8,9 10 5 18 10 NE 1026,5 6 0 0,0
15.11.2017 17:00:00 0,2 -1,1 -1,0 2,6 3,7 8,9 11 6 21 11 NNE 1026,2 7 13 0,0
15.11.2017 16:00:00 1,1 -1,0 1,2 3,2 3,6 8,9 10 5 21 11 NNE 1026,3 11 59 0,0
15.11.2017 15:00:00 1,5 -0,9 3,1 3,2 3,5 8,9 13 7 25 13 NNE 1026,1 12 58 0,0
15.11.2017 14:00:00 2,2 -1,8 3,4 2,4 3,5 8,9 14 8 23 12 ENE 1026,2 23 60 0,0
15.11.2017 13:00:00 1,4 -1,6 2,7 1,4 3,5 8,9 14 7 23 13 E 1026,9 13 60 0,0
15.11.2017 12:00:00 0,0 -2,9 1,7 1,1 3,5 8,9 15 8 21 12 NE 1027,9 7 58 0,0
15.11.2017 11:00:00 -2,0 -3,5 -1,3 1,1 3,6 8,9 11 6 22 12 ENE 1029,2 8 44 0,0
15.11.2017 10:00:00 -3,2 -4,7 -2,1 1,1 3,6 8,9 12 7 18 10 NE 1029,9 10 54 0,0
15.11.2017 09:00:00 -4,0 -5,4 -2,7 1,1 3,7 8,9 11 6 17 9 NE 1030,1 9 60 0,0
15.11.2017 08:00:00 -5,0 -5,9 -6,3 1,2 3,7 8,9 5 3 13 7 NE 1030,1 8 8 0,0
15.11.2017 07:00:00 -4,9 -6,0 -6,7 1,3 3,8 9,0 5 3 10 5 NE 1029,6 11 0 0,0
15.11.2017 06:00:00 -4,4 -5,6 -6,1 1,4 3,9 9,0 8 4 13 7 N 1029,3 16 0 0,0
15.11.2017 05:00:00 -4,1 -4,9 -6,2 1,5 3,9 9,0 5 3 10 5 N 1029,4 9 0 0,0
15.11.2017 04:00:00 -3,7 -4,2 -6,3 1,6 4,0 9,0 4 2 9 5 N 1029,6 6 0 0,0
15.11.2017 03:00:00 -4,1 -4,6 -6,9 1,6 4,0 9,0 4 2 11 6 NNE 1029,8 4,8 0 0,0
15.11.2017 02:00:00 -3,0 -3,3 -3,3 1,7 4,1 9,0 9 5 15 8 NE 1029,8 0,5 0 0,0
15.11.2017 01:00:00 -2,6 -2,9 -2,5 1,8 4,2 9,0 14 7 18 10 ENE 1029,7 0,2 0 0,0
15.11.2017 00:00:00 -3,0 -3,1 -2,8 1,8 4,2 9,0 5 3 10 5 E 1030,3 0,3 0 0,0
14.11.2017 23:00:00 -3,2 -3,2 -3,4 1,9 4,3 9,0 5 3 9 5 ENE 1030,4 0,2 0 0,0
14.11.2017 22:00:00 -3,9 -4,6 -6,9 2,0 4,4 9,0 3 2 6 3 NNE 1030,7 3,5 0 0,0
14.11.2017 21:00:00 -3,7 -4,3 -6,5 2,1 4,5 9,0 3 2 8 5 S 1030,5 3,7 0 0,0
14.11.2017 20:00:00 -2,4 -2,8 -5,6 2,3 4,6 9,0 5 3 8 4 ESE 1030,0 4,0 0 0,0
14.11.2017 19:00:00 -2,1 -2,5 -5,3 2,6 4,7 9,0 4 2 5 3 E 1029,6 4,2 0 0,0
14.11.2017 18:00:00 -1,2 -1,9 -4,6 3,1 4,7 9,0 3 2 7 4 NNE 1028,7 7 0 0,0
14.11.2017 17:00:00 -0,1 -1,8 -2,5 4,1 4,6 9,0 5 3 15 8 ENE 1027,8 13 25 0,0
14.11.2017 16:00:00 1,3 -1,2 1,0 5,1 4,4 9,1 9 5 15 8 E 1027,1 16 60 0,0
14.11.2017 15:00:00 2,0 -1,4 4,1 5,5 4,2 9,1 10 5 17 9 ENE 1026,9 24 57 0,0
14.11.2017 14:00:00 2,1 -0,8 4,3 5,4 4,0 9,1 10 5 19 11 ENE 1026,7 19 60 0,0
14.11.2017 13:00:00 1,6 -1,4 3,7 4,7 3,9 9,1 11 6 16 9 ENE 1027,1 11 60 0,0
14.11.2017 12:00:00 0,3 -1,1 3,4 3,3 3,8 9,1 6 4 14 8 NE 1027,6 14 46 0,0
14.11.2017 11:00:00 -1,3 -2,0 -0,1 2,0 3,9 9,1 9 5 14 8 NE 1028,3 4,6 8 0,0
14.11.2017 10:00:00 -1,8 -2,3 -0,7 1,6 3,9 9,1 3 2 7 4 NNW 1028,2 0,5 0 0,0
14.11.2017 09:00:00 -2,5 -2,9 -1,8 1,6 3,9 9,1 5 3 8 4 NE 1028,3 1,7 0 0,0
14.11.2017 08:00:00 -2,6 -2,9 -2,2 1,6 4,0 9,1 4 2 8 4 ENE 1027,8 0,2 0 0,0
14.11.2017 07:00:00 -2,8 -3,2 -3,6 1,6 4,0 9,1 0 0 8 4 N 1027,2 1,0 0 0,0
14.11.2017 06:00:00 -2,2 -2,6 -4,1 1,7 4,1 9,1 7 4 12 6 ENE 1026,4 6 0 0,0
14.11.2017 05:00:00 -1,6 -1,8 -1,3 1,7 4,1 9,1 4 2 8 4 NE 1025,8 0,2 0 0,0
14.11.2017 04:00:00 -2,0 -2,2 -1,6 1,7 4,2 9,1 2 1 5 3 NW 1025,5 0,1 0 0,0
14.11.2017 03:00:00 -1,3 -1,5 -2,1 1,8 4,2 9,1 2 1 8 4 N 1025,0 0,1 0 0,0
14.11.2017 02:00:00 -1,6 -2,0 -3,3 1,8 4,3 9,1 0 0 8 4 N 1024,6 0,2 0 0,0
14.11.2017 01:00:00 -1,1 -1,1 -1,1 1,9 4,4 9,1 5 3 8 4 NW 1024,1 0,1 0 0,0
14.11.2017 00:00:00 -0,3 -0,5 -2,5 2,0 4,4 9,1 0 0 5 3 N 1023,6 3,0 0 0,0

tt = Température de l'air
td = dewpoint
tt 5cm = Température de l'air 5cm
tt -5cm = Température de l'air -5cm
tt -20cm = Température de l'air -20cm
tt -100cm = Température de l'air -100cm
ff = Vitesse du vent
fx = gusts
dd = Direction du vent
ppp = reduced air pressure
vv = visibility
sd = Ensoleillement
rr = Quantités de précipitations

stations d'obs. à proximité